Flag for Canada Weather past 2 weeks in East Hants, Nova Scotia, Canada

Now
63 °F

Mostly cloudy.


Feels Like: 63 °F
Forecast: 61 / 74 °F
Wind: 7 mph from Southwest

Location: Halifax International Airport

Current Time: Jul 28, 2015 at 10:23:19 PM

Latest Report: Jul 28, 2015 at 10:00 PM


Visibility: 8 mi

Pressure: 29.95 "Hg

Humidity: 100%

Dew point: 63 °F

Location of East HantsLocation

Historic Weather in East Hants — Graph

°F

East Hants temperature yesterday

Maximum temperature yesterday: 68 °F (at 5:00 PM)
Minimum temperature yesterday: 57 °F (at 12:00 AM)
Average temperature yesterday: 62 °F

Past Weeks' High & Low Weather Summary

 TemperatureHumidityPressure
High79 °F (Jul 14, 3:00 PM)100% (Jul 14, 11:00 PM)30.16 "Hg (Jul 14, 11:00 PM)
Low54 °F (Jul 17, 2:00 AM)33% (Jul 17, 5:00 PM)29.52 "Hg (Jul 22, 6:00 PM)
Average63 °F86%29.88 "Hg
* Reported Jul 13 9:00 PM — Jul 28 9:00 PM, East Hants, Weather by CustomWeather, © 2015

Note: Actual official high and low records may vary slightly from our data, if they occured in-between our weather recording intervals... More about our weather records

Advertising

East Hants weather history for previous 24 hours

 ConditionsComfort  
Time TempWeatherWind HumidityBarometerVisibility
9:00 PM
Tue, Jul 28
66 °FMostly cloudy.9 mph88%29.94 "Hg15 mi
8:00 PM66 °FMostly cloudy.8 mph94%29.95 "Hg15 mi
7:00 PM68 °FMostly cloudy.10 mph88%29.95 "Hg15 mi
6:00 PM68 °FMostly cloudy.10 mph88%29.95 "Hg15 mi
5:00 PM68 °FMostly cloudy.8 mph88%29.95 "Hg15 mi
4:00 PM66 °FSprinkles. Mostly cloudy.8 mph100%29.96 "Hg10 mi
3:00 PM66 °FSprinkles. Mostly cloudy.12 mph94%29.98 "Hg8 mi
2:00 PM68 °FSprinkles. Mostly cloudy.13 mph88%29.99 "Hg15 mi
1:00 PM68 °FSprinkles. Overcast.10 mph88%30.00 "Hg15 mi
12:57 PM68 °FSprinkles. Overcast.10 mph88%30.00 "Hg15 mi
12:00 PM70 °FThunderstorms. Partly sunny.12 mph83%30.01 "Hg15 mi
11:00 AM70 °FPartly sunny.12 mph83%30.01 "Hg15 mi
10:00 AM68 °FPartly sunny.10 mph88%30.01 "Hg15 mi
9:00 AM66 °FLow clouds.7 mph88%30.03 "Hg12 mi
8:00 AM64 °FFog.7 mph94%30.02 "Hg6 mi
7:00 AM64 °FFog.9 mph94%30.02 "Hg6 mi
6:00 AM63 °FFog.6 mph100%30.02 "Hg1 mi
5:47 AM63 °FFog.7 mph100%30.02 "Hg1 mi
5:00 AM63 °FLow clouds.6 mph100%30.03 "Hg8 mi
4:00 AM63 °FLow clouds.7 mph94%30.04 "Hg12 mi
3:00 AM63 °FLow clouds.9 mph94%30.05 "Hg10 mi
2:00 AM63 °FOvercast.9 mph94%30.06 "Hg15 mi
1:00 AM63 °FOvercast.10 mph94%30.06 "Hg15 mi
12:00 AM63 °FPassing clouds.9 mph94%30.07 "Hg15 mi
11:00 PM
Mon, Jul 27
63 °FPassing clouds.9 mph94%30.08 "Hg15 mi
10:00 PM64 °FPassing clouds.8 mph88%30.08 "Hg15 mi
Weather by CustomWeather, © 2015

See weather overviewHow to use our weather pages